User: anonymous
Location: Wawayanda State Park
(41.1833°N, 74.4333°W)
Time: 11:33:10
(UTC-04:00)
Language:

RESURS DK-1 - Orbit

View from above orbital plane
View from above orbital plane
View from above satellite
View from above satellite

Ground track
Ground track

The orbit data is extracted from the following two-line orbital elements,

1 29228U 06021A   14212.38860640  .00000272  00000-0  28986-4 0   884
2 29228 069.9362 251.9412 0004371 191.5849 284.3372 15.00734911450207
Epoch (UTC): 31 July 2014 09:19:35
Eccentricity: 0.0004371
inclination: 69.9362°
perigee height: 561 km
apogee height: 567 km
right ascension of ascending node: 251.9412°
argument of perigee: 191.5849°
revolutions per day: 15.00734911
mean anomaly at epoch: 284.3372°
orbit number at epoch: 45020

The dashed part of the orbit path shows where the satellite is in the earth's shadow,  

DLR